This demonstration page uses our WeatherBlox Daily Observations layout. Learn more.

Hourly Observations for June 26, 2016

Temp ( °F °C ) Dew Point ( °F °C ) Humidity (%) Winds ( mph kmh ) Pressure ( in mb ) Visibility ( mi km ) Precip ( " mm )
12:15 am 00:15 Clear 66 19 64 17.5 91 91 Calm 30 1016 10 16.09344 0 0
12:35 am 00:35 Clear 68 19.9 64 17.5 86 86 Calm 30.03 1017 10 16.09344 0 0
12:55 am 00:55 Clear 68 19.8 63 17.3 86 86 Calm 30.03 1017 10 16.09344 0 0
1:15 am 01:15 Clear 67 19.2 63 17.3 89 89 Calm 30.03 1017 10 16.09344 0 0
1:35 am 01:35 Clear 67 19.5 63 17.2 87 87 Calm 30.03 1017 10 16.09344 0 0
1:55 am 01:55 Clear 65 18.6 63 17.1 91 91 Calm 30.03 1017 10 16.09344 0 0
2:15 am 02:15 Clear 65 18.3 63 17.1 93 93 Calm 30.03 1017 10 16.09344 0 0
2:35 am 02:35 Clear 66 18.8 62 16.7 88 88 Calm 30.03 1017 10 16.09344 0 0
2:55 am 02:55 Clear 66 18.8 62 16.6 87 87 Calm 30.03 1017 10 16.09344 0 0
3:15 am 03:15 Clear 65 18.5 62 16.6 89 89 Calm 30.03 1017 10 16.09344 0 0
3:35 am 03:35 Clear 65 18.5 62 16.6 89 89 Calm 30.03 1017 10 16.09344 0 0
3:55 am 03:55 Clear 64 17.9 62 16.6 92 92 Calm 30.03 1017 10 16.09344 0 0
4:15 am 04:15 Clear 63 17.4 61 16.3 93 93 Calm 30.03 1017 10 16.09344 0 0
4:35 am 04:35 Clear 63 17.2 61 16 93 93 Calm 30.03 1017 10 16.09344 0 0
4:55 am 04:55 Clear 63 17.1 61 16.1 94 94 Calm 30.03 1017 10 16.09344 0 0
5:15 am 05:15 Clear 62 16.8 60 15.8 94 94 Calm 30.06 1018 10 16.09344 0 0
5:35 am 05:35 Clear 62 16.7 60 15.8 94 94 NNE 5 7 30.06 1018 10 16.09344 0 0
5:55 am 05:55 Clear 63 17 61 16 94 94 N 5 7 30.03 1017 10 16.09344 0 0
6:15 am 06:15 Sunny 62 16.5 60 15.4 93 93 Calm 30.06 1018 7 11.265408 0 0
6:35 am 06:35 Sunny 62 16.7 60 15.7 94 94 NNW 5 7 30.09 1019 7 11.265408 0 0
6:55 am 06:55 Sunny 62 16.7 60 15.7 94 94 NNW 3 6 30.09 1019 7 11.265408 0 0
7:15 am 07:15 Sunny 63 17 61 16 94 94 NNW 3 6 30.09 1019 7 11.265408 0 0
7:35 am 07:35 Sunny 64 17.5 61 16.3 93 93 Calm 30.06 1018 7 11.265408 0 0
7:55 am 07:55 Sunny 64 17.8 62 16.5 92 92 NNW 5 7 30.06 1018 7 11.265408 0 0
8:15 am 08:15 Sunny 66 18.9 63 17.1 89 89 NNW 3 6 30.06 1018 10 16.09344 0 0
8:35 am 08:35 Sunny 68 20.1 64 18 88 88 N 3 6 30.06 1018 10 16.09344 0 0
8:55 am 08:55 Sunny 69 20.7 65 18.3 86 86 Calm 30.03 1017 10 16.09344 0 0
9:15 am 09:15 Sunny 71 21.5 65 18.5 83 83 N 3 6 30.03 1017 10 16.09344 0 0
9:35 am 09:35 Sunny 73 23 66 18.8 77 77 Calm 30.03 1017 10 16.09344 0 0
9:55 am 09:55 Sunny 75 24.1 63 17 65 65 E 7 11 30.03 1017 10 16.09344 0 0
10:15 am 10:15 Sunny 76 24.6 62 16.6 61 61 SE 9 15 30 1016 10 16.09344 0 0
10:35 am 10:35 Sunny 78 25.4 61 16.3 57 57 SE 9 15 30 1016 10 16.09344 0 0
10:55 am 10:55 Sunny 79 26.3 60 15.8 52 52 SSE 12 19 30 1016 10 16.09344 0 0
11:15 am 11:15 Sunny 79 25.9 60 15.3 52 52 SSE 9 15 30 1016 10 16.09344 0 0
11:35 am 11:35 Sunny 80 26.5 62 16.5 54 54 SE 8 13 30 1016 10 16.09344 0 0
11:55 am 11:55 Sunny 82 27.5 62 16.5 51 51 SE 10 17 30 1016 10 16.09344 0 0
12:15 pm 12:15 Sunny 82 27.9 61 16.3 49 49 ESE 9 15 30 1016 10 16.09344 0 0
12:35 pm 12:35 Sunny 84 29 58 14.4 41 41 SE 9 15 29.97 1015 10 16.09344 0 0
12:55 pm 12:55 Sunny 84 28.7 55 12.8 38 38 E 13 20 29.97 1015 10 16.09344 0 0
1:15 pm 13:15 Sunny 85 29.4 56 13.3 37 37 ESE 15 24 29.97 1015 10 16.09344 0 0
1:35 pm 13:35 Sunny 86 30 51 10.6 30 30 ESE 14 22 29.97 1015 10 16.09344 0 0
1:55 pm 13:55 Sunny 86 30 52 11 31 31 ESE 13 20 29.97 1015 10 16.09344 0 0
2:15 pm 14:15 Sunny 87 30.5 52 11 30 30 ESE 13 20 29.97 1015 10 16.09344 0 0
2:35 pm 14:35 Sunny 87 30.7 51 10.8 29 29 ESE 14 22 29.97 1015 10 16.09344 0 0
2:55 pm 14:55 Sunny 88 31.2 46 7.6 23 23 ESE 14 22 29.97 1015 10 16.09344 0 0
3:15 pm 15:15 Sunny 88 31.2 43 5.9 20 20 ESE 12 19 29.97 1015 10 16.09344 0 0
3:35 pm 15:35 Sunny 89 31.5 43 6.2 20 20 SE 10 17 29.97 1015 10 16.09344 0 0
3:55 pm 15:55 Sunny 89 31.5 42 5.8 20 20 ESE 13 20 29.97 1015 10 16.09344 0 0
4:15 pm 16:15 Sunny 89 31.7 45 7.2 22 22 SE 12 19 29.91 1013 10 16.09344 0 0
4:35 pm 16:35 Sunny 89 31.6 45 7.3 22 22 SE 10 17 29.91 1013 10 16.09344 0 0
4:55 pm 16:55 Sunny 89 31.7 43 6 20 20 ESE 12 19 29.91 1013 10 16.09344 0 0
5:15 pm 17:15 Sunny 89 31.4 42 5.5 20 20 ESE 12 19 29.94 1014 10 16.09344 0 0
5:35 pm 17:35 Sunny 89 31.4 45 7.3 22 22 ESE 10 17 29.94 1014 10 16.09344 0 0
5:55 pm 17:55 Sunny 88 31.2 45 7.1 22 22 ESE 10 17 29.94 1014 10 16.09344 0 0
6:15 pm 18:15 Sunny 88 31 47 8.6 25 25 ESE 10 17 29.94 1014 10 16.09344 0 0
6:35 pm 18:35 Sunny 87 30.8 48 9.1 26 26 ESE 8 13 29.91 1013 10 16.09344 0 0
6:55 pm 18:55 Sunny 87 30.4 51 10.7 30 30 ESE 8 13 29.94 1014 10 16.09344 0 0
7:15 pm 19:15 Sunny 86 30 53 11.4 32 32 E 7 11 29.94 1014 10 16.09344 0 0
7:35 pm 19:35 Sunny 85 29.5 53 11.7 33 33 ESE 6 9 29.94 1014 10 16.09344 0 0
7:55 pm 19:55 Sunny 83 28.6 58 14.5 42 42 ESE 5 7 29.94 1014 10 16.09344 0 0
8:15 pm 20:15 Sunny 82 27.7 60 15.7 48 48 ESE 5 7 29.97 1015 10 16.09344 0 0
8:35 pm 20:35 Sunny 80 26.9 60 15.3 49 49 SE 8 13 29.97 1015 10 16.09344 0 0
8:55 pm 20:55 Sunny 78 25.5 59 15 52 52 SE 7 11 30 1016 10 16.09344 0 0
9:15 pm 21:15 Clear 77 24.8 59 15 55 55 SE 8 13 30 1016 10 16.09344 0 0
9:35 pm 21:35 Clear 74 23.6 59 15 59 59 SE 9 15 30.03 1017 10 16.09344 0 0
9:55 pm 21:55 Clear 73 22.5 60 15.5 65 65 ESE 9 15 30.03 1017 10 16.09344 0 0
10:15 pm 22:15 Clear 72 22 60 15.5 67 67 ESE 7 11 30.03 1017 10 16.09344 0 0
10:35 pm 22:35 Clear 72 22.4 60 15.3 64 64 ESE 8 13 30.03 1017 10 16.09344 0 0
10:55 pm 22:55 Clear 71 21.6 61 16 71 71 ESE 7 11 30.03 1017 10 16.09344 0 0
11:15 pm 23:15 Clear 71 21.8 62 16.5 72 72 SE 7 11 30.03 1017 10 16.09344 0 0
11:35 pm 23:35 Clear with Nearby Thunderstorms 71 21.5 62 16.8 75 75 Calm 30.06 1018 10 16.09344 0 0
11:55 pm 23:55 Partly Cloudy 77 25 51 10.7 41 41 N 14 22 30.12 1020 10 16.09344 0 0

Powered by AerisWeather